TimePDT,TemperatureF,Dew PointF,Humidity,Sea Level PressureIn,VisibilityMPH,Wind Direction,Wind SpeedMPH,Gust SpeedMPH,PrecipitationIn,Events,Conditions,WindDirDegrees,DateUTC
12:00 AM,53.6,51.8,94,30.04,30.0,East,4.6,-,N/A,,Clear,80,2013-09-09 07:00:00
1:00 AM,53.6,51.8,94,30.05,30.0,East,3.5,-,N/A,,Partly Cloudy,100,2013-09-09 08:00:00
2:00 AM,53.6,51.8,94,30.05,15.0,NNE,3.5,-,N/A,,Partly Cloudy,30,2013-09-09 09:00:00
3:00 AM,53.6,51.8,94,30.05,20.0,East,2.3,-,N/A,,Partly Cloudy,90,2013-09-09 10:00:00
4:00 AM,53.6,51.8,94,30.05,20.0,SE,2.3,-,N/A,,Partly Cloudy,130,2013-09-09 11:00:00
5:00 AM,53,52,95,30.05,19,East,2.3,,,,Scattered Clouds,90,2013-09-09 12:00:00
5:00 AM,51.8,51.8,100,30.05,20.0,East,3.5,-,N/A,,Partly Cloudy,100,2013-09-09 12:00:00
6:00 AM,53.6,51.8,94,30.06,15.0,ESE,3.5,-,N/A,,Mostly Cloudy,120,2013-09-09 13:00:00
7:00 AM,51.8,51.8,100,30.06,20.0,ESE,3.5,-,N/A,,Scattered Clouds,110,2013-09-09 14:00:00
8:00 AM,53.6,53.6,100,30.07,15.0,Calm,Calm,-,N/A,,Scattered Clouds,0,2013-09-09 15:00:00
9:00 AM,57.2,55.4,94,30.07,20.0,Calm,Calm,-,N/A,,Mostly Cloudy,0,2013-09-09 16:00:00
10:00 AM,66.2,60.8,83,30.08,20.0,Calm,Calm,-,N/A,,Partly Cloudy,0,2013-09-09 17:00:00
11:00 AM,64,56,67,30.08,19,East,6.9,,,,Partly Cloudy,90,2013-09-09 18:00:00
11:00 AM,64.4,55.4,73,30.08,20.0,East,8.1,-,N/A,,Mostly Cloudy,90,2013-09-09 18:00:00
12:00 PM,68.0,59.0,73,30.08,20.0,East,5.8,-,N/A,,Partly Cloudy,90,2013-09-09 19:00:00
1:00 PM,69.8,60.8,73,30.06,20.0,ENE,5.8,-,N/A,,Partly Cloudy,70,2013-09-09 20:00:00
2:00 PM,69.8,60.8,73,30.05,20.0,ENE,6.9,-,N/A,,Partly Cloudy,60,2013-09-09 21:00:00
3:00 PM,69.8,60.8,73,30.04,20.0,East,6.9,-,N/A,,Partly Cloudy,90,2013-09-09 22:00:00
4:00 PM,69.8,60.8,73,30.03,20.0,East,5.8,-,N/A,,Scattered Clouds,90,2013-09-09 23:00:00
5:00 PM,71,60,60,30.02,19,ESE,5.8,,,,Scattered Clouds,120,2013-09-10 00:00:00
5:00 PM,69.8,60.8,73,30.02,20.0,SE,5.8,-,N/A,,Scattered Clouds,130,2013-09-10 00:00:00
6:00 PM,68.0,59.0,73,30.01,20.0,ESE,4.6,-,N/A,,Partly Cloudy,120,2013-09-10 01:00:00
7:00 PM,64.4,59.0,83,30.00,30.0,ESE,4.6,-,N/A,,Partly Cloudy,110,2013-09-10 02:00:00
8:00 PM,62.6,57.2,82,30.01,30.0,NE,3.5,-,N/A,,Clear,50,2013-09-10 03:00:00
9:00 PM,59.0,55.4,88,30.02,30.0,Calm,Calm,-,N/A,,Clear,0,2013-09-10 04:00:00
10:00 PM,59.0,57.2,94,30.02,30.0,Calm,Calm,-,N/A,,Clear,0,2013-09-10 05:00:00
11:00 PM,56,55,95,30.02,28,WSW,3.5,,,,,250,2013-09-10 06:00:00
11:00 PM,57.2,55.4,94,30.02,30.0,West,2.3,-,N/A,,Clear,260,2013-09-10 06:00:00